TimeCST,TemperatureF,Dew PointF,Humidity,Sea Level PressureIn,VisibilityMPH,Wind Direction,Wind SpeedMPH,Gust SpeedMPH,PrecipitationIn,Events,Conditions,WindDirDegrees,DateUTC
12:13 AM,21.2,19.4,93,29.71,10.0,SW,11.5,-,N/A,,Clear,220,2013-02-05 06:13:00
12:33 AM,21.2,19.4,93,29.71,10.0,SW,11.5,-,N/A,,Clear,230,2013-02-05 06:33:00
12:53 AM,21.2,19.4,93,29.69,10.0,SW,11.5,-,N/A,,Clear,230,2013-02-05 06:53:00
1:13 AM,21.2,19.4,93,29.70,10.0,SW,8.1,-,N/A,,Clear,230,2013-02-05 07:13:00
1:33 AM,21.2,19.4,93,29.69,10.0,WSW,9.2,-,N/A,,Clear,240,2013-02-05 07:33:00
1:53 AM,21.2,19.4,93,29.69,10.0,WSW,8.1,-,N/A,,Clear,240,2013-02-05 07:53:00
2:13 AM,21.2,19.4,93,29.69,10.0,WSW,6.9,-,N/A,,Clear,240,2013-02-05 08:13:00
2:33 AM,19.4,17.6,93,29.69,10.0,SW,5.8,-,N/A,,Clear,230,2013-02-05 08:33:00
2:53 AM,19.4,17.6,93,29.68,10.0,WSW,5.8,-,N/A,,Clear,240,2013-02-05 08:53:00
3:13 AM,19.4,17.6,93,29.67,10.0,SW,4.6,-,N/A,,Clear,220,2013-02-05 09:13:00
3:33 AM,21.2,19.4,93,29.67,10.0,WSW,5.8,-,N/A,,Scattered Clouds,250,2013-02-05 09:33:00
3:53 AM,21.2,19.4,93,29.67,10.0,WSW,6.9,-,N/A,,Mostly Cloudy,250,2013-02-05 09:53:00
4:13 AM,21.2,21.2,100,29.67,10.0,WSW,5.8,-,N/A,,Mostly Cloudy,250,2013-02-05 10:13:00
4:33 AM,21.2,19.4,93,29.68,10.0,WSW,4.6,-,N/A,,Overcast,250,2013-02-05 10:33:00
4:53 AM,21.2,19.4,93,29.68,10.0,Calm,Calm,-,N/A,,Mostly Cloudy,0,2013-02-05 10:53:00
5:13 AM,21.2,19.4,93,29.69,10.0,West,5.8,-,N/A,,Scattered Clouds,270,2013-02-05 11:13:00
5:33 AM,23.0,21.2,93,29.70,10.0,WNW,5.8,-,N/A,,Scattered Clouds,290,2013-02-05 11:33:00
5:53 AM,24.8,21.2,86,29.70,10.0,NW,6.9,-,N/A,,Scattered Clouds,310,2013-02-05 11:53:00
6:13 AM,26.6,23.0,86,29.70,10.0,NW,8.1,-,N/A,,Clear,310,2013-02-05 12:13:00
6:33 AM,24.8,21.2,86,29.71,10.0,NW,6.9,-,N/A,,Clear,310,2013-02-05 12:33:00
6:53 AM,26.6,24.8,93,29.72,10.0,NW,8.1,-,N/A,,Clear,320,2013-02-05 12:53:00
7:13 AM,26.6,24.8,93,29.74,10.0,NW,12.7,-,N/A,,Scattered Clouds,320,2013-02-05 13:13:00
7:33 AM,26.6,24.8,93,29.76,10.0,NW,10.4,-,N/A,,Mostly Cloudy,320,2013-02-05 13:33:00
7:53 AM,26.6,24.8,93,29.77,10.0,NNW,10.4,-,N/A,,Mostly Cloudy,330,2013-02-05 13:53:00
8:13 AM,28.4,24.8,86,29.77,10.0,NNW,10.4,18.4,N/A,,Scattered Clouds,330,2013-02-05 14:13:00
8:33 AM,28.4,24.8,86,29.79,10.0,NW,10.4,-,N/A,,Scattered Clouds,320,2013-02-05 14:33:00
8:53 AM,28.4,24.8,86,29.80,10.0,NW,10.4,-,N/A,,Clear,320,2013-02-05 14:53:00
9:13 AM,28.4,26.6,93,29.80,10.0,NW,11.5,-,N/A,,Clear,310,2013-02-05 15:13:00
9:33 AM,30.2,26.6,86,29.82,10.0,NW,10.4,-,N/A,,Clear,320,2013-02-05 15:33:00
9:53 AM,30.2,26.6,86,29.83,10.0,NW,13.8,17.3,N/A,,Mostly Cloudy,320,2013-02-05 15:53:00
10:13 AM,32.0,26.6,80,29.85,10.0,NNW,11.5,-,N/A,,Overcast,330,2013-02-05 16:13:00
10:33 AM,32.0,28.4,87,29.87,10.0,NW,10.4,18.4,N/A,,Overcast,320,2013-02-05 16:33:00
10:53 AM,33.8,28.4,81,29.87,10.0,NNW,15.0,21.9,N/A,,Overcast,340,2013-02-05 16:53:00
11:13 AM,33.8,28.4,81,29.88,10.0,NNW,15.0,21.9,N/A,,Overcast,330,2013-02-05 17:13:00
11:33 AM,33.8,28.4,81,29.89,10.0,NNW,17.3,25.3,N/A,,Overcast,330,2013-02-05 17:33:00
11:53 AM,33.8,28.4,81,29.90,10.0,NNW,11.5,-,N/A,,Overcast,330,2013-02-05 17:53:00
12:13 PM,33.8,28.4,81,29.90,10.0,NNW,11.5,-,N/A,,Overcast,330,2013-02-05 18:13:00
12:33 PM,33.8,28.4,81,29.91,10.0,NW,12.7,20.7,N/A,,Overcast,320,2013-02-05 18:33:00
12:53 PM,33.8,28.4,81,29.91,10.0,NW,18.4,-,N/A,,Overcast,320,2013-02-05 18:53:00
1:13 PM,33.8,28.4,81,29.92,10.0,NNW,19.6,24.2,N/A,,Overcast,340,2013-02-05 19:13:00
1:33 PM,33.8,28.4,81,29.93,10.0,North,15.0,20.7,N/A,,Overcast,350,2013-02-05 19:33:00
1:53 PM,32.0,26.6,80,29.93,10.0,North,15.0,24.2,N/A,,Overcast,350,2013-02-05 19:53:00
2:13 PM,30.2,26.6,86,29.94,7.0,NNW,16.1,19.6,N/A,,Overcast,340,2013-02-05 20:13:00
2:33 PM,30.2,26.6,86,29.93,10.0,NNW,13.8,18.4,N/A,,Overcast,340,2013-02-05 20:33:00
2:53 PM,30.2,24.8,80,29.95,10.0,NNW,11.5,-,N/A,,Overcast,330,2013-02-05 20:53:00
3:13 PM,30.2,24.8,80,29.96,10.0,NW,13.8,20.7,N/A,,Overcast,320,2013-02-05 21:13:00
3:33 PM,30.2,24.8,80,29.97,10.0,NNW,11.5,18.4,N/A,,Overcast,330,2013-02-05 21:33:00
3:53 PM,30.2,24.8,80,29.96,10.0,NW,11.5,-,N/A,,Overcast,320,2013-02-05 21:53:00
4:13 PM,30.2,24.8,80,29.96,10.0,NNW,11.5,-,N/A,,Mostly Cloudy,330,2013-02-05 22:13:00
4:33 PM,30.2,24.8,80,29.96,10.0,NNW,10.4,-,N/A,,Scattered Clouds,340,2013-02-05 22:33:00
5:13 PM,28.4,24.8,86,29.97,10.0,NNW,9.2,-,N/A,,Clear,330,2013-02-05 23:13:00
5:53 PM,28.4,23.0,80,29.98,10.0,NW,6.9,-,N/A,,Mostly Cloudy,320,2013-02-05 23:53:00
6:13 PM,26.6,21.2,80,29.99,10.0,NW,5.8,-,N/A,,Scattered Clouds,320,2013-02-06 00:13:00
6:33 PM,26.6,21.2,80,29.99,10.0,NNW,6.9,-,N/A,,Clear,330,2013-02-06 00:33:00
6:53 PM,24.8,21.2,86,30.00,10.0,NNW,8.1,-,N/A,,Clear,330,2013-02-06 00:53:00
7:13 PM,24.8,21.2,86,30.01,10.0,NNW,6.9,-,N/A,,Clear,340,2013-02-06 01:13:00
7:33 PM,24.8,19.4,80,30.00,10.0,NNW,4.6,-,N/A,,Clear,330,2013-02-06 01:33:00
7:53 PM,23.0,19.4,86,30.00,10.0,Calm,Calm,-,N/A,,Clear,0,2013-02-06 01:53:00
8:13 PM,21.2,19.4,93,30.00,10.0,Calm,Calm,-,N/A,,Clear,0,2013-02-06 02:13:00
8:33 PM,21.2,19.4,93,30.00,10.0,Calm,Calm,-,N/A,,Clear,0,2013-02-06 02:33:00
8:53 PM,21.2,19.4,93,30.00,7.0,Calm,Calm,-,N/A,,Clear,0,2013-02-06 02:53:00
9:13 PM,21.2,19.4,93,30.00,10.0,Calm,Calm,-,N/A,,Clear,0,2013-02-06 03:13:00
9:33 PM,19.4,19.4,100,30.01,7.0,SSW,3.5,-,N/A,,Clear,210,2013-02-06 03:33:00
9:53 PM,17.6,17.6,100,30.01,7.0,SW,3.5,-,N/A,,Clear,220,2013-02-06 03:53:00
10:13 PM,19.4,17.6,93,30.02,7.0,SSW,4.6,-,N/A,,Clear,200,2013-02-06 04:13:00
10:34 PM,21.2,19.4,93,30.01,7.0,Calm,Calm,-,N/A,,Clear,0,2013-02-06 04:34:00
10:53 PM,19.4,17.6,93,30.01,7.0,SSW,5.8,-,N/A,,Clear,200,2013-02-06 04:53:00
11:13 PM,19.4,17.6,93,30.00,7.0,SSW,5.8,-,N/A,,Clear,200,2013-02-06 05:13:00
11:33 PM,19.4,17.6,93,30.00,7.0,South,5.8,-,N/A,,Clear,190,2013-02-06 05:33:00
11:53 PM,21.2,19.4,93,30.00,10.0,East,3.5,-,N/A,,Clear,100,2013-02-06 05:53:00